Change the Weather History Date:

Friday, February 10, 2012

  Actual Average Record
Temperature  
Mean Temperature 32 °F -  
Max Temperature 38 °F - 76 °F (1965)
Min Temperature 26 °F - -4 °F (1979)
Degree Days  
Heating Degree Days 33    
Month to date heating degree days 205  
Since 1 July heating degree days 2311  
Cooling Degree Days 0    
Month to date cooling degree days 0  
Moisture  
Dew Point 30 °F    
Average Humidity 82    
Maximum Humidity 100    
Minimum Humidity 64    
Precipitation  
Precipitation 0.03 in - 2.04 in (1984)
Month to date precipitation 0.61  
Sea Level Pressure  
Sea Level Pressure 30.09 in    
Wind  
Wind Speed 5 mph (SW)    
Max Wind Speed 26 mph    
Max Gust Speed 32 mph    
Visibility 8 miles    
Events Snow    
T = Trace of Precipitation, MM = Missing Value Source: NWS Daily Summary

Daily Weather History Graph

Daily Weather History Graph

Search for Another Location

Airport or City:

Trip Planner

Search our weather history database for the weather conditions in past years. The results will help you decide how hot, cold, wet, or windy it might be!

Date:

Astronomy

Feb. 10, 2012 Rise Set
Actual Time 6:43 AM CST 5:24 PM CST
Civil Twilight 6:16 AM CST 5:51 PM CST
Nautical Twilight 5:46 AM CST 6:21 PM CST
Astronomical Twilight 5:16 AM CST 6:51 PM CST
Moon 8:54 PM CST (2/10) 7:59 AM CST (2/10)
Length of Visible Light 11h 34m
Length of Day
10h 40m
Waning Gibbous, 90% of the Moon is Illuminated
Feb 10
Waning Gibbous
Feb 14
Last Quarter
Feb 21
New
Feb 29
First Quarter
Mar 8
Full

Hourly Weather History & Observations

Time (CST) Temp. Windchill Dew Point Humidity Pressure Visibility Wind Dir Wind Speed Gust Speed Precip Events Conditions
12:52 AM 27.0 °F - 25.0 °F 92% 30.23 in 8.0 mi Calm Calm - N/A   Clear
1:52 AM 28.0 °F - 25.0 °F 88% 30.21 in 8.0 mi Calm Calm - N/A   Partly Cloudy
2:52 AM 28.0 °F - 26.1 °F 92% 30.19 in 8.0 mi Calm Calm - N/A   Partly Cloudy
3:52 AM 27.0 °F - 25.0 °F 92% 30.18 in 7.0 mi Calm Calm - N/A   Clear
4:52 AM 28.0 °F - 26.1 °F 92% 30.18 in 7.0 mi Calm Calm - N/A   Clear
5:52 AM 27.0 °F - 26.1 °F 96% 30.19 in 7.0 mi Calm Calm - N/A   Overcast
6:52 AM 28.9 °F - 27.0 °F 92% 30.18 in 7.0 mi Calm Calm - N/A   Overcast
7:52 AM 30.0 °F - 27.0 °F 88% 30.18 in 8.0 mi Calm Calm - N/A   Mostly Cloudy
8:52 AM 33.1 °F - 27.0 °F 78% 30.15 in 10.0 mi Calm Calm - N/A   Mostly Cloudy
9:52 AM 35.1 °F 29.3 °F 27.0 °F 72% 30.15 in 10.0 mi South 6.9 mph - N/A   Mostly Cloudy
10:52 AM 37.0 °F 31.6 °F 27.0 °F 67% 30.13 in 10.0 mi South 6.9 mph - N/A   Overcast
11:52 AM 37.0 °F 31.6 °F 27.0 °F 67% 30.11 in 10.0 mi South 6.9 mph - N/A   Overcast
12:52 PM 37.9 °F 32.7 °F 27.0 °F 65% 30.09 in 10.0 mi WSW 6.9 mph - N/A   Overcast
1:52 PM 37.9 °F 33.5 °F 28.9 °F 70% 30.07 in 9.0 mi SW 5.8 mph - 0.00 in   Overcast
2:52 PM 37.9 °F 32.7 °F 30.9 °F 76% 30.06 in 10.0 mi South 6.9 mph - N/A   Overcast
3:22 PM 37.4 °F 32.8 °F 32.0 °F 81% 30.03 in 10.0 mi South 5.8 mph - N/A   Overcast
3:52 PM 37.0 °F 31.6 °F 30.9 °F 79% 30.05 in 10.0 mi South 6.9 mph - N/A   Overcast
4:12 PM 37.4 °F 31.4 °F 32.0 °F 81% 30.03 in 10.0 mi South 8.1 mph - N/A   Overcast
4:52 PM 36.0 °F 29.6 °F 32.0 °F 86% 30.05 in 10.0 mi SSW 8.1 mph - 0.00 in   Overcast
5:23 PM 35.6 °F 30.7 °F 33.8 °F 93% 30.03 in 7.0 mi SSW 5.8 mph - 0.00 in   Overcast
5:52 PM 35.1 °F 30.1 °F 33.1 °F 92% 30.05 in 6.0 mi SSW 5.8 mph - 0.00 in Snow Light Snow
6:16 PM 35.6 °F 30.7 °F 33.8 °F 93% 30.03 in 4.0 mi SSW 5.8 mph - 0.01 in Snow Light Snow
6:33 PM 35.6 °F 32.8 °F 33.8 °F 93% 30.04 in 3.0 mi SW 3.5 mph - 0.01 in Snow Light Snow
6:52 PM 35.1 °F 31.0 °F 33.1 °F 92% 30.05 in 4.0 mi SW 4.6 mph - 0.02 in   Overcast
7:52 PM 35.1 °F 31.0 °F 34.0 °F 96% 30.05 in 5.0 mi SW 4.6 mph - 0.00 in   Overcast
8:52 PM 35.1 °F 30.1 °F 34.0 °F 96% 30.05 in 5.0 mi WSW 5.8 mph - N/A   Overcast
9:52 PM 36.0 °F 29.0 °F 35.1 °F 97% 30.05 in 7.0 mi West 9.2 mph - N/A   Overcast
10:33 PM 33.8 °F 22.5 °F 30.2 °F 87% 30.06 in 5.0 mi NW 19.6 mph 26.5 mph 0.01 in Snow Light Snow
10:52 PM 34.0 °F 23.4 °F 30.9 °F 89% 30.08 in 7.0 mi NW 17.3 mph 23.0 mph 0.01 in   Overcast
11:23 PM 32.0 °F 19.2 °F 28.4 °F 87% 30.08 in 10.0 mi NNW 23.0 mph 31.1 mph N/A   Overcast
11:31 PM 32.0 °F 18.4 °F 28.4 °F 87% 30.08 in 10.0 mi NNW 26.5 mph 32.2 mph N/A   Overcast
11:52 PM 30.9 °F 17.8 °F 26.1 °F 82% 30.11 in 10.0 mi NNW 23.0 mph 27.6 mph N/A   Overcast